Regional Weather Roundup
Issued by NWS

Home | Current Version | Previous Version | Graphics & Text | Print | Product List | Glossary On
Versions: 1 2 3 4 5 6 7 8 9 10 11 12 13 14 15 16 17 18 19 20 21 22 23 24 25 26 27 28 29 30 31 32 33 34 35 36 37 38 39 40 41 42 43 44 45 46 47 48 49 50
000
ASUS43 KFSD 030902
RWRSD

WEATHER ROUNDUP FOR SOUTH DAKOTA
NATIONAL WEATHER SERVICE SIOUX FALLS SD
400 AM CDT THU SEP 03 2015

NOTE: "FAIR" INDICATES FEW OR NO CLOUDS BELOW 12,000 FEET WITH NO
SIGNIFICANT WEATHER AND/OR OBSTRUCTIONS TO VISIBILITY.


SDZ001>005-009-010-012>017-031000-
NORTHWEST AND NORTH CENTRAL SOUTH DAKOTA

CITY           SKY/WX    TMP DP  RH WIND       PRES   REMARKS
BUFFALO          N/A     66  54  65 S10       29.66S
MOBRIDGE       CLEAR     69  68  96 SE8       29.68S
$$

SDZ012>016-024>037-041>051-057-063-072>074-031000-
SOUTHWEST AND SOUTH CENTRAL SOUTH DAKOTA

CITY           SKY/WX    TMP DP  RH WIND       PRES   REMARKS
RAPID CTY ARPT PTCLDY    64  47  53 SE3       29.78F
PIERRE         CLEAR     67  59  75 SE7       29.71S
CUSTER         PTCLDY    66  36  32 W5        29.99S
ELLSWORTH AFB  PTCLDY    68  46  46 SW3       29.77F
PHILIP         CLEAR     70  53  54 CALM      29.74S
PINE RIDGE     CLEAR     74  51  44 S12       29.83F
WINNER         FAIR      75  60  59 S8        29.77S
$$

SDZ004>011-016>023-039-040-031000-
NORTHEAST SOUTH DAKOTA

CITY           SKY/WX    TMP DP  RH WIND       PRES   REMARKS
ABERDEEN       CLEAR     73  69  87 SE12      29.74S
WATERTOWN      CLEAR     72  69  90 SE12      29.81S
BROOKINGS      CLEAR     70  66  88 SE9       29.84S
$$

SDZ017-020-022-023-036>040-048>070-031000-
SOUTHEAST SOUTH DAKOTA

CITY           SKY/WX    TMP DP  RH WIND       PRES   REMARKS
SIOUX FALLS    CLEAR     69  67  93 E3        29.83S
HURON          CLEAR     71  69  93 SE12      29.75S
CHAMBERLAIN    CLEAR     69  65  86 CALM      29.76S
MITCHELL       CLEAR     70  69  97 SE7       29.78S
YANKTON        CLEAR     68  66  94 E6        29.79S
$$

ABBREVIATIONS USED IN REMARKS
   TC - TEMPERATURE IN CELSIUS
  WCI - WIND CHILL INDEX
   HX - HEAT INDEX
  VSB - VISIBILITY




USA.gov is the U.S. government's official web portal to all federal, state and local government web resources and services.